When you browse on this site, cookies collect data to enhance your experience and personalize the content and advertising you see.
Visit our Privacy Policy to learn more. By continuing to use the site, you agree to this use of cookies and data.
  • In Germany
  • List of Countries
  • For 7 days
  • Water Temperature
  • Satellite Maps
  • Weather Map
  • Weather Widgets
  • user-avatar
    Login

    Hourly Weather Durham

    Today, 19 November, Monday

    Time Temperature Precipitation Wind Pressure Humidity
    00:00 +5°C° 0 mm 4 mps 767 mmHg 91%
    01:00 +6°C° 0 mm 4 mps 767 mmHg 90%
    02:00 +6°C° 0 mm 4 mps 767 mmHg 89%
    03:00 +6°C° 0 mm 4 mps 766 mmHg 88%
    04:00 +6°C° 0 mm 5 mps 766 mmHg 87%
    05:00 +6°C° 0 mm 5 mps 766 mmHg 85%
    06:00 +6°C° 0 mm 4 mps 766 mmHg 84%
    07:00 +6°C° 0 mm 4 mps 766 mmHg 83%
    08:00 +6°C° 0 mm 5 mps 765 mmHg 81%
    09:00 +6°C° 0 mm 5 mps 765 mmHg 79%
    10:00 +5°C° 0 mm 6 mps 765 mmHg 78%
    11:00 +7°C° 0 mm 6 mps 765 mmHg 77%
    12:00 +7°C° 0 mm 6 mps 765 mmHg 76%
    13:00 +7°C° 0.1 mm 6 mps 764 mmHg 76%
    14:00 +5°C° 0.1 mm 6 mps 764 mmHg 76%
    15:00 +5°C° 0.1 mm 7 mps 764 mmHg 76%
    16:00 +5°C° 0.1 mm 7 mps 763 mmHg 76%
    17:00 +5°C° 0.1 mm 7 mps 763 mmHg 76%
    18:00 +5°C° 0.1 mm 7 mps 763 mmHg 76%
    19:00 +5°C° 0.1 mm 7 mps 763 mmHg 77%
    20:00 +5°C° 0.1 mm 7 mps 763 mmHg 77%
    21:00 +4°C° 0.1 mm 7 mps 763 mmHg 77%
    22:00 +4°C° 0.1 mm 7 mps 763 mmHg 77%
    23:00 +4°C° 0.1 mm 7 mps 762 mmHg 77%

    Tomorrow, 20 November, Tuesday

    Time Temperature Precipitation Wind Pressure Humidity
    00:00 +4°C° 0.1 mm 7 mps 762 mmHg 77%
    01:00 +4°C° 0.1 mm 7 mps 762 mmHg 77%
    02:00 +4°C° 0.1 mm 7 mps 761 mmHg 78%
    03:00 +4°C° 0.1 mm 8 mps 761 mmHg 78%
    04:00 +4°C° 0.2 mm 8 mps 761 mmHg 78%
    05:00 +4°C° 0.2 mm 8 mps 760 mmHg 78%
    06:00 +4°C° 0.2 mm 8 mps 760 mmHg 78%
    07:00 +4°C° 0.2 mm 8 mps 760 mmHg 78%
    08:00 +4°C° 0.2 mm 8 mps 760 mmHg 77%
    09:00 +5°C° 0.2 mm 9 mps 759 mmHg 77%
    10:00 +5°C° 0.3 mm 9 mps 759 mmHg 76%
    11:00 +5°C° 0.3 mm 9 mps 758 mmHg 75%
    12:00 +5°C° 0.3 mm 10 mps 758 mmHg 74%
    13:00 +5°C° 0.4 mm 10 mps 758 mmHg 75%
    14:00 +5°C° 0.4 mm 10 mps 757 mmHg 76%
    15:00 +5°C° 0.4 mm 10 mps 757 mmHg 76%
    16:00 +5°C° 0.8 mm 10 mps 756 mmHg 77%
    17:00 +5°C° 0.8 mm 10 mps 756 mmHg 79%
    18:00 +3°C° 0.8 mm 10 mps 756 mmHg 80%
    19:00 +3°C° 0.7 mm 9 mps 756 mmHg 80%
    20:00 +3°C° 0.7 mm 9 mps 756 mmHg 81%
    21:00 +4°C° 0.7 mm 8 mps 755 mmHg 81%
    22:00 +4°C° 0.7 mm 8 mps 755 mmHg 82%
    23:00 +4°C° 0.7 mm 8 mps 755 mmHg 82%

    Day after tomorrow, 21 November, Wednesday

    Time Temperature Precipitation Wind Pressure Humidity
    00:00 +4°C° 0.7 mm 8 mps 754 mmHg 83%
    01:00 +4°C° 0.9 mm 8 mps 754 mmHg 83%
    02:00 +4°C° 0.9 mm 8 mps 753 mmHg 83%
    03:00 +4°C° 0.9 mm 8 mps 753 mmHg 84%
    04:00 +3°C° 0.7 mm 9 mps 752 mmHg 83%
    05:00 +3°C° 0.7 mm 9 mps 752 mmHg 82%
    06:00 +3°C° 0.7 mm 9 mps 752 mmHg 82%
    07:00 +4°C° 0.4 mm 8 mps 753 mmHg 82%
    08:00 +4°C° 0.4 mm 8 mps 753 mmHg 83%
    09:00 +4°C° 0.4 mm 8 mps 753 mmHg 83%
    10:00 +4°C° 1 mm 8 mps 754 mmHg 84%
    11:00 +4°C° 1 mm 8 mps 754 mmHg 84%
    12:00 +4°C° 1 mm 7 mps 754 mmHg 84%
    13:00 +4°C° 0.3 mm 7 mps 754 mmHg 81%
    14:00 +4°C° 0.3 mm 6 mps 755 mmHg 78%
    15:00 +4°C° 0.3 mm 6 mps 755 mmHg 76%
    16:00 +3°C° 0 mm 5 mps 756 mmHg 77%
    17:00 +2°C° 0 mm 5 mps 757 mmHg 79%
    18:00 +3°C° 0 mm 4 mps 757 mmHg 80%
    19:00 +1°C° 0 mm 4 mps 758 mmHg 81%
    20:00 +2°C° 0 mm 3 mps 759 mmHg 82%
    21:00 +3°C° 0 mm 2 mps 759 mmHg 83%
    22:00 +3°C° 0 mm 2 mps 759 mmHg 83%
    23:00 +2°C° 0 mm 2 mps 760 mmHg 84%

    22 November, Thursday

    Time Temperature Precipitation Wind Pressure Humidity
    00:00 +3°C° 0 mm 1 mps 760 mmHg 84%
    01:00 +3°C° 0 mm 1 mps 760 mmHg 84%
    02:00 +3°C° 0 mm 1 mps 760 mmHg 83%
    03:00 +3°C° 0 mm 1 mps 760 mmHg 83%
    04:00 +3°C° 0 mm 1 mps 760 mmHg 83%
    05:00 +4°C° 0 mm 1 mps 761 mmHg 84%
    06:00 +3°C° 0 mm 2 mps 761 mmHg 84%
    07:00 +3°C° 0 mm 2 mps 761 mmHg 85%
    08:00 +4°C° 0 mm 2 mps 761 mmHg 86%
    09:00 +4°C° 0 mm 2 mps 761 mmHg 87%
    10:00 +5°C° 0 mm 2 mps 761 mmHg 87%
    11:00 +6°C° 0 mm 2 mps 761 mmHg 86%
    12:00 +7°C° 0 mm 2 mps 761 mmHg 85%
    13:00 +6°C° 0.1 mm 2 mps 761 mmHg 86%
    14:00 +6°C° 0.1 mm 2 mps 761 mmHg 87%
    15:00 +6°C° 0.1 mm 2 mps 760 mmHg 88%
    16:00 +6°C° 0 mm 2 mps 760 mmHg 88%
    17:00 +6°C° 0 mm 2 mps 760 mmHg 89%
    18:00 +5°C° 0 mm 2 mps 760 mmHg 90%
    19:00 +5°C° 0.1 mm 2 mps 760 mmHg 90%
    20:00 +5°C° 0.1 mm 2 mps 761 mmHg 90%
    21:00 +5°C° 0.1 mm 2 mps 761 mmHg 91%
    22:00 +6°C° 0.1 mm 2 mps 761 mmHg 91%
    23:00 +6°C° 0.1 mm 2 mps 761 mmHg 92%

    23 November, Friday

    Time Temperature Precipitation Wind Pressure Humidity
    00:00 +6°C° 0.1 mm 2 mps 761 mmHg 92%
    01:00 +6°C° 0.1 mm 2 mps 760 mmHg 92%
    02:00 +6°C° 0.1 mm 2 mps 760 mmHg 92%
    03:00 +6°C° 0.1 mm 2 mps 760 mmHg 92%
    04:00 +5°C° 0.1 mm 2 mps 760 mmHg 92%
    05:00 +5°C° 0.1 mm 2 mps 760 mmHg 92%
    06:00 +5°C° 0.1 mm 2 mps 760 mmHg 92%
    07:00 +5°C° 0 mm 2 mps 760 mmHg 92%
    08:00 +5°C° 0 mm 2 mps 760 mmHg 91%
    09:00 +5°C° 0 mm 2 mps 760 mmHg 91%
    10:00 +6°C° 0 mm 2 mps 760 mmHg 88%
    11:00 +7°C° 0 mm 2 mps 760 mmHg 85%
    12:00 +7°C° 0 mm 2 mps 759 mmHg 82%
    13:00 +7°C° 0 mm 2 mps 759 mmHg 84%
    14:00 +7°C° 0 mm 2 mps 759 mmHg 85%
    15:00 +7°C° 0 mm 2 mps 759 mmHg 87%
    16:00 +6°C° 0 mm 2 mps 759 mmHg 88%
    17:00 +6°C° 0 mm 2 mps 759 mmHg 90%
    18:00 +6°C° 0 mm 2 mps 759 mmHg 91%
    19:00 +6°C° 0.1 mm 2 mps 759 mmHg 92%
    20:00 +6°C° 0.1 mm 2 mps 759 mmHg 92%
    21:00 +6°C° 0.1 mm 2 mps 759 mmHg 93%
    22:00 +6°C° 0 mm 2 mps 759 mmHg 93%
    23:00 +7°C° 0 mm 1 mps 759 mmHg 93%

    24 November, Saturday

    Time Temperature Precipitation Wind Pressure Humidity
    00:00 +7°C° 0 mm 1 mps 759 mmHg 94%
    01:00 +7°C° 0 mm 1 mps 759 mmHg 93%
    02:00 +7°C° 0 mm 1 mps 759 mmHg 93%
    03:00 +7°C° 0 mm 1 mps 759 mmHg 93%
    04:00 +7°C° 0 mm 1 mps 758 mmHg 92%
    05:00 +7°C° 0 mm 1 mps 758 mmHg 92%
    06:00 +6°C° 0 mm 1 mps 758 mmHg 92%
    07:00 +6°C° 0 mm 1 mps 759 mmHg 92%
    08:00 +6°C° 0 mm 1 mps 759 mmHg 92%
    09:00 +6°C° 0 mm 1 mps 759 mmHg 92%
    10:00 +7°C° 0 mm 1 mps 759 mmHg 89%
    11:00 +7°C° 0 mm 2 mps 759 mmHg 86%
    12:00 +8°C° 0 mm 2 mps 759 mmHg 83%
    13:00 +7°C° 0 mm 2 mps 759 mmHg 85%
    14:00 +7°C° 0 mm 2 mps 759 mmHg 86%
    15:00 +7°C° 0 mm 2 mps 759 mmHg 88%
    16:00 +6°C° 0.1 mm 2 mps 759 mmHg 89%
    17:00 +6°C° 0.1 mm 2 mps 759 mmHg 90%
    18:00 +5°C° 0.1 mm 2 mps 759 mmHg 91%
    19:00 +5°C° 0.1 mm 2 mps 759 mmHg 91%
    20:00 +5°C° 0.1 mm 2 mps 760 mmHg 91%
    21:00 +4°C° 0.1 mm 2 mps 760 mmHg 91%
    22:00 +4°C° 0.1 mm 2 mps 760 mmHg 91%
    23:00 +4°C° 0.1 mm 2 mps 759 mmHg 91%
    Show more